• In Deutschland
  • Länderverzeichnis
  • Für 7 Tage
  • Wassertemperatur
  • Satellitenkarten
  • Wetterkarte
  • Widgets
  • user-avatar
    Anmelden

    Stündliche Wetter Loubomo

    Heute, 20 November, Montag

    Zeit Temperatur Niederschläge Wind Luftdruck Luftfeuchtigkeit
    00:00 +20°C° 0,1 mm 0 m/S 700 mmHg 95%
    01:00 +20°C° 0 mm 0 m/S 700 mmHg 97%
    02:00 +20°C° 1,5 mm 0 m/S 700 mmHg 97%
    03:00 +20°C° 1,5 mm 0 m/S 700 mmHg 97%
    04:00 +20°C° 1,5 mm 0 m/S 700 mmHg 97%
    05:00 +20°C° 0,1 mm 0 m/S 700 mmHg 97%
    06:00 +20°C° 0,1 mm 0 m/S 700 mmHg 96%
    07:00 +21°C° 0 mm 0 m/S 701 mmHg 95%
    08:00 +25°C° 0,1 mm 1 m/S 701 mmHg 84%
    09:00 +27°C° 0,1 mm 1 m/S 701 mmHg 73%
    10:00 +29°C° 0,1 mm 1 m/S 701 mmHg 63%
    11:00 +30°C° 0,3 mm 1 m/S 701 mmHg 60%
    12:00 +31°C° 0,3 mm 1 m/S 700 mmHg 58%
    13:00 +32°C° 0,3 mm 2 m/S 700 mmHg 55%
    14:00 +32°C° 0,4 mm 1 m/S 699 mmHg 57%
    15:00 +32°C° 0,4 mm 1 m/S 699 mmHg 58%
    16:00 +31°C° 0,4 mm 1 m/S 698 mmHg 59%
    17:00 +29°C° 0,2 mm 1 m/S 698 mmHg 66%
    18:00 +27°C° 0,2 mm 1 m/S 699 mmHg 74%
    19:00 +25°C° 0,2 mm 1 m/S 699 mmHg 81%
    20:00 +25°C° 0,4 mm 1 m/S 699 mmHg 84%
    21:00 +24°C° 0,4 mm 1 m/S 699 mmHg 87%
    22:00 +23°C° 0,4 mm 1 m/S 700 mmHg 90%
    23:00 +21°C° 1,6 mm 0 m/S 700 mmHg 93%

    Morgen, 21 November, Dienstag

    Zeit Temperatur Niederschläge Wind Luftdruck Luftfeuchtigkeit
    00:00 +21°C° 1,6 mm 0 m/S 700 mmHg 95%
    01:00 +20°C° 1,6 mm 0 m/S 700 mmHg 97%
    02:00 +20°C° 1,3 mm 0 m/S 699 mmHg 98%
    03:00 +20°C° 1,3 mm 0 m/S 699 mmHg 98%
    04:00 +20°C° 1,3 mm 0 m/S 699 mmHg 98%
    05:00 +20°C° 0,5 mm 0 m/S 699 mmHg 98%
    06:00 +20°C° 0,5 mm 0 m/S 700 mmHg 97%
    07:00 +20°C° 0,5 mm 0 m/S 700 mmHg 97%
    08:00 +21°C° 0 mm 0 m/S 700 mmHg 95%
    09:00 +22°C° 0 mm 0 m/S 700 mmHg 93%
    10:00 +22°C° 0 mm 0 m/S 700 mmHg 91%
    11:00 +27°C° 0,1 mm 1 m/S 700 mmHg 77%
    12:00 +30°C° 0,1 mm 1 m/S 700 mmHg 63%
    13:00 +32°C° 0,1 mm 1 m/S 699 mmHg 49%
    14:00 +32°C° 0 mm 1 m/S 699 mmHg 50%
    15:00 +32°C° 0 mm 1 m/S 698 mmHg 51%
    16:00 +32°C° 0 mm 1 m/S 697 mmHg 51%
    17:00 +30°C° 0 mm 1 m/S 698 mmHg 59%
    18:00 +27°C° 0 mm 1 m/S 698 mmHg 68%
    19:00 +23°C° 0 mm 0 m/S 698 mmHg 76%
    20:00 +23°C° 0 mm 0 m/S 698 mmHg 77%
    21:00 +22°C° 0 mm 0 m/S 699 mmHg 78%
    22:00 +22°C° 0 mm 0 m/S 700 mmHg 79%
    23:00 +23°C° 0 mm 1 m/S 699 mmHg 81%

    übermorgen, 22 November, Mittwoch

    Zeit Temperatur Niederschläge Wind Luftdruck Luftfeuchtigkeit
    00:00 +23°C° 0 mm 1 m/S 699 mmHg 84%
    01:00 +22°C° 0 mm 1 m/S 699 mmHg 86%
    02:00 +22°C° 0,1 mm 1 m/S 699 mmHg 89%
    03:00 +22°C° 0,1 mm 1 m/S 698 mmHg 93%
    04:00 +22°C° 0,1 mm 1 m/S 698 mmHg 96%
    05:00 +22°C° 0 mm 1 m/S 699 mmHg 95%
    06:00 +22°C° 0 mm 1 m/S 699 mmHg 94%
    07:00 +23°C° 0 mm 1 m/S 700 mmHg 93%
    08:00 +25°C° 0 mm 1 m/S 700 mmHg 85%
    09:00 +27°C° 0 mm 1 m/S 701 mmHg 77%
    10:00 +29°C° 0 mm 1 m/S 701 mmHg 69%
    11:00 +30°C° 0 mm 1 m/S 700 mmHg 63%
    12:00 +32°C° 0 mm 1 m/S 700 mmHg 58%
    13:00 +33°C° 0 mm 1 m/S 699 mmHg 52%
    14:00 +32°C° 0,6 mm 1 m/S 699 mmHg 59%
    15:00 +30°C° 0,6 mm 1 m/S 698 mmHg 65%
    16:00 +29°C° 0,6 mm 1 m/S 697 mmHg 72%
    17:00 +27°C° 0,1 mm 1 m/S 698 mmHg 79%
    18:00 +26°C° 0,1 mm 1 m/S 698 mmHg 86%
    19:00 +24°C° 0,1 mm 1 m/S 698 mmHg 92%
    20:00 +24°C° 0 mm 1 m/S 699 mmHg 93%
    21:00 +24°C° 0 mm 1 m/S 699 mmHg 94%
    22:00 +23°C° 0 mm 1 m/S 700 mmHg 94%
    23:00 +23°C° 0,5 mm 1 m/S 699 mmHg 96%

    23 November, Donnerstag

    Zeit Temperatur Niederschläge Wind Luftdruck Luftfeuchtigkeit
    00:00 +23°C° 0,5 mm 1 m/S 699 mmHg 97%
    01:00 +22°C° 0,5 mm 1 m/S 699 mmHg 98%
    02:00 +22°C° 0,1 mm 1 m/S 699 mmHg 98%
    03:00 +22°C° 0,1 mm 1 m/S 699 mmHg 98%
    04:00 +22°C° 0,1 mm 1 m/S 698 mmHg 98%
    05:00 +22°C° 0 mm 1 m/S 699 mmHg 97%
    06:00 +23°C° 0 mm 1 m/S 699 mmHg 96%
    07:00 +23°C° 0 mm 1 m/S 700 mmHg 95%
    08:00 +24°C° 0 mm 1 m/S 700 mmHg 89%
    09:00 +25°C° 0 mm 1 m/S 701 mmHg 84%
    10:00 +26°C° 0 mm 1 m/S 701 mmHg 78%
    11:00 +27°C° 0,3 mm 1 m/S 701 mmHg 73%
    12:00 +29°C° 0,3 mm 1 m/S 700 mmHg 69%
    13:00 +30°C° 0,3 mm 1 m/S 699 mmHg 65%
    14:00 +29°C° 0,2 mm 1 m/S 699 mmHg 65%
    15:00 +29°C° 0,2 mm 1 m/S 698 mmHg 65%
    16:00 +29°C° 0,2 mm 1 m/S 698 mmHg 65%
    17:00 +27°C° 0 mm 1 m/S 698 mmHg 73%
    18:00 +26°C° 0 mm 1 m/S 698 mmHg 81%
    19:00 +24°C° 0 mm 1 m/S 699 mmHg 88%
    20:00 +24°C° 0 mm 1 m/S 699 mmHg 90%
    21:00 +23°C° 0 mm 1 m/S 700 mmHg 93%
    22:00 +23°C° 0 mm 1 m/S 700 mmHg 95%
    23:00 +22°C° 0 mm 1 m/S 700 mmHg 96%

    24 November, Freitag

    Zeit Temperatur Niederschläge Wind Luftdruck Luftfeuchtigkeit
    00:00 +22°C° 0 mm 1 m/S 700 mmHg 97%
    01:00 +22°C° 0 mm 1 m/S 699 mmHg 98%
    02:00 +22°C° 0 mm 1 m/S 699 mmHg 98%
    03:00 +22°C° 0 mm 1 m/S 699 mmHg 97%
    04:00 +22°C° 0 mm 1 m/S 699 mmHg 96%
    05:00 +22°C° 0 mm 1 m/S 700 mmHg 95%
    06:00 +22°C° 0 mm 1 m/S 700 mmHg 94%
    07:00 +22°C° 0 mm 1 m/S 700 mmHg 92%
    08:00 +23°C° 0 mm 1 m/S 701 mmHg 88%
    09:00 +24°C° 0 mm 1 m/S 701 mmHg 84%
    10:00 +25°C° 0 mm 1 m/S 701 mmHg 79%
    11:00 +27°C° 0 mm 1 m/S 701 mmHg 68%
    12:00 +29°C° 0 mm 1 m/S 700 mmHg 57%
    13:00 +32°C° 0 mm 1 m/S 699 mmHg 45%
    14:00 +32°C° 0 mm 1 m/S 699 mmHg 44%
    15:00 +29°C° 0 mm 0 m/S 698 mmHg 42%
    16:00 +29°C° 0 mm 0 m/S 698 mmHg 41%
    17:00 +27°C° 0 mm 0 m/S 698 mmHg 49%
    18:00 +24°C° 0 mm 0 m/S 698 mmHg 58%
    19:00 +22°C° 0 mm 0 m/S 698 mmHg 66%
    20:00 +21°C° 0 mm 0 m/S 699 mmHg 69%
    21:00 +23°C° 0 mm 1 m/S 699 mmHg 72%
    22:00 +22°C° 0 mm 1 m/S 700 mmHg 75%
    23:00 +22°C° 0 mm 1 m/S 700 mmHg 78%

    25 November, Samstag

    Zeit Temperatur Niederschläge Wind Luftdruck Luftfeuchtigkeit
    00:00 +21°C° 0 mm 1 m/S 699 mmHg 80%
    01:00 +21°C° 0 mm 1 m/S 699 mmHg 83%
    02:00 +21°C° 0 mm 1 m/S 699 mmHg 86%
    03:00 +21°C° 0 mm 1 m/S 699 mmHg 90%
    04:00 +21°C° 0 mm 1 m/S 699 mmHg 93%
    05:00 +21°C° 0 mm 1 m/S 700 mmHg 93%
    06:00 +22°C° 0 mm 1 m/S 700 mmHg 92%
    07:00 +22°C° 0 mm 1 m/S 701 mmHg 91%
    08:00 +24°C° 0 mm 1 m/S 701 mmHg 83%
    09:00 +26°C° 0 mm 1 m/S 701 mmHg 74%
    10:00 +28°C° 0 mm 1 m/S 702 mmHg 65%
    11:00 +29°C° 0 mm 1 m/S 701 mmHg 56%
    12:00 +31°C° 0 mm 1 m/S 701 mmHg 46%
    13:00 +33°C° 0 mm 1 m/S 700 mmHg 37%
    14:00 +33°C° 0 mm 1 m/S 699 mmHg 37%
    15:00 +32°C° 0 mm 1 m/S 699 mmHg 37%
    16:00 +32°C° 0 mm 1 m/S 698 mmHg 37%
    17:00 +29°C° 0 mm 1 m/S 699 mmHg 45%
    18:00 +27°C° 0 mm 1 m/S 699 mmHg 53%
    19:00 +22°C° 0 mm 0 m/S 699 mmHg 61%
    20:00 +22°C° 0 mm 0 m/S 699 mmHg 63%
    21:00 +21°C° 0 mm 0 m/S 700 mmHg 64%
    22:00 +21°C° 0 mm 0 m/S 700 mmHg 66%
    23:00 +22°C° 0 mm 1 m/S 700 mmHg 68%
    Mehr zeigen